Time,TemperatureF,DewpointF,PressureIn,WindDirection,WindDirectionDegrees,WindSpeedMPH,WindSpeedGustMPH,Humidity,HourlyPrecipIn,Conditions,Clouds,dailyrainin,SoftwareType,DateUTC
2013-05-26 01:34:00,46.6,36.2,0.00,West,268,0.0,0.0,67,0.00,,---,0.00,VWS V13.01,2013-05-26 05:34:00,
2013-05-26 01:35:00,46.6,36.2,0.00,West,268,0.0,0.0,67,0.00,,---,0.00,VWS V13.01,2013-05-26 05:35:00,
2013-05-26 01:40:00,46.4,36.0,0.00,WSW,249,0.0,0.0,67,0.00,,---,0.00,VWS V13.01,2013-05-26 05:40:00,
2013-05-26 01:45:00,46.4,36.0,0.00,WSW,249,0.0,0.0,67,0.00,,---,0.00,VWS V13.01,2013-05-26 05:45:00,
2013-05-26 01:50:00,46.4,36.0,0.00,West,279,0.0,0.0,67,0.00,,---,0.00,VWS V13.01,2013-05-26 05:50:00,
2013-05-26 01:55:00,46.4,36.0,0.00,West,273,0.0,0.0,67,0.00,,---,0.00,VWS V13.01,2013-05-26 05:55:00,
2013-05-26 02:00:00,46.4,36.0,0.00,West,272,0.0,0.0,67,0.00,,---,0.00,VWS V13.01,2013-05-26 06:00:00,
2013-05-26 02:06:00,46.4,36.0,0.00,West,272,0.0,0.0,67,0.00,,---,0.00,VWS V13.01,2013-05-26 06:06:00,
2013-05-26 02:11:00,46.6,36.2,0.00,WSW,243,0.0,0.0,67,0.00,,---,0.00,VWS V13.01,2013-05-26 06:11:00,
2013-05-26 02:16:00,46.6,36.2,0.00,WSW,247,0.0,0.0,67,0.00,,---,0.00,VWS V13.01,2013-05-26 06:16:00,
2013-05-26 02:21:00,46.6,36.2,0.00,West,270,0.0,0.0,67,0.00,,---,0.00,VWS V13.01,2013-05-26 06:21:00,
2013-05-26 02:26:00,46.6,36.2,0.00,SW,235,0.0,4.8,67,0.00,,---,0.00,VWS V13.01,2013-05-26 06:26:00,
2013-05-26 02:31:00,46.6,36.6,0.00,West,270,0.0,0.0,68,0.00,,---,0.00,VWS V13.01,2013-05-26 06:31:00,
2013-05-26 02:36:00,46.6,36.6,0.00,WSW,240,0.0,6.4,68,0.00,,---,0.00,VWS V13.01,2013-05-26 06:36:00,
2013-05-26 02:41:00,46.4,36.4,0.00,West,267,0.0,5.6,68,0.00,,---,0.00,VWS V13.01,2013-05-26 06:41:00,
2013-05-26 02:46:00,46.0,36.5,0.00,West,276,0.0,0.0,69,0.00,,---,0.00,VWS V13.01,2013-05-26 06:46:00,
2013-05-26 02:51:00,45.9,36.3,0.00,WSW,247,0.0,0.0,69,0.00,,---,0.00,VWS V13.01,2013-05-26 06:51:00,
2013-05-26 02:56:00,45.7,36.5,0.00,West,260,0.0,0.0,70,0.00,,---,0.00,VWS V13.01,2013-05-26 06:56:00,
2013-05-26 03:01:00,45.5,36.3,0.00,WNW,291,0.0,0.0,70,0.00,,---,0.00,VWS V13.01,2013-05-26 07:01:00,
2013-05-26 03:06:00,45.1,36.0,0.00,West,278,0.0,0.0,70,0.00,,---,0.00,VWS V13.01,2013-05-26 07:06:00,
2013-05-26 03:11:00,45.1,36.3,0.00,WSW,248,0.0,5.6,71,0.00,,---,0.00,VWS V13.01,2013-05-26 07:11:00,
2013-05-26 03:16:00,45.0,36.1,0.00,West,277,0.0,0.0,71,0.00,,---,0.00,VWS V13.01,2013-05-26 07:16:00,
2013-05-26 03:21:00,44.8,35.6,0.00,West,272,0.0,0.0,70,0.00,,---,0.00,VWS V13.01,2013-05-26 07:21:00,
2013-05-26 03:26:00,45.0,35.8,0.00,NW,315,0.0,4.0,70,0.00,,---,0.00,VWS V13.01,2013-05-26 07:26:00,
2013-05-26 03:31:00,44.8,35.6,0.00,West,260,0.0,6.4,70,0.00,,---,0.00,VWS V13.01,2013-05-26 07:31:00,
2013-05-26 03:36:00,44.8,35.2,0.00,West,264,0.0,0.0,69,0.00,,---,0.00,VWS V13.01,2013-05-26 07:36:00,
2013-05-26 03:41:00,44.8,35.2,0.00,WSW,258,0.0,4.0,69,0.00,,---,0.00,VWS V13.01,2013-05-26 07:41:00,
2013-05-26 03:46:00,45.0,35.4,0.00,NW,309,0.0,6.4,69,0.00,,---,0.00,VWS V13.01,2013-05-26 07:46:00,
2013-05-26 03:51:00,44.8,35.2,0.00,North,350,8.7,11.3,69,0.00,,---,0.00,VWS V13.01,2013-05-26 07:51:00,
2013-05-26 03:56:00,45.0,35.0,0.00,WNW,295,0.0,0.0,68,0.00,,---,0.00,VWS V13.01,2013-05-26 07:56:00,
2013-05-26 04:01:00,44.8,34.9,0.00,WNW,298,0.0,5.6,68,0.00,,---,0.00,VWS V13.01,2013-05-26 08:01:00,
2013-05-26 04:06:00,45.0,35.0,0.00,WNW,293,0.0,0.0,68,0.00,,---,0.00,VWS V13.01,2013-05-26 08:06:00,
2013-05-26 04:11:00,44.8,34.9,0.00,WSW,250,4.0,6.4,68,0.00,,---,0.00,VWS V13.01,2013-05-26 08:11:00,
2013-05-26 04:16:00,44.8,34.9,0.00,West,275,0.0,0.0,68,0.00,,---,0.00,VWS V13.01,2013-05-26 08:16:00,
2013-05-26 04:21:00,44.8,34.9,0.00,WSW,255,0.0,0.0,68,0.00,,---,0.00,VWS V13.01,2013-05-26 08:21:00,
2013-05-26 04:26:00,44.6,34.7,0.00,West,271,0.0,0.0,68,0.00,,---,0.00,VWS V13.01,2013-05-26 08:26:00,
2013-05-26 04:31:00,44.6,34.7,0.00,West,262,0.0,0.0,68,0.00,,---,0.00,VWS V13.01,2013-05-26 08:31:00,
2013-05-26 04:36:00,44.6,34.7,0.00,West,273,0.0,0.0,68,0.00,,---,0.00,VWS V13.01,2013-05-26 08:36:00,
2013-05-26 04:41:00,44.4,34.9,0.00,WSW,245,0.0,9.7,69,0.00,,---,0.00,VWS V13.01,2013-05-26 08:41:00,
2013-05-26 04:46:00,44.4,34.9,0.00,SSW,210,0.0,4.8,69,0.00,,---,0.00,VWS V13.01,2013-05-26 08:46:00,
2013-05-26 04:51:00,44.2,34.7,0.00,WNW,282,3.4,5.6,69,0.00,,---,0.00,VWS V13.01,2013-05-26 08:51:00,
2013-05-26 04:56:00,44.2,34.7,0.00,WSW,246,0.0,0.0,69,0.00,,---,0.00,VWS V13.01,2013-05-26 08:56:00,
2013-05-26 05:01:00,44.2,34.7,0.00,WSW,254,4.0,4.8,69,0.00,,---,0.00,VWS V13.01,2013-05-26 09:01:00,
2013-05-26 05:06:00,44.2,34.7,0.00,West,264,0.0,5.6,69,0.00,,---,0.00,VWS V13.01,2013-05-26 09:06:00,
2013-05-26 08:02:00,50.2,33.7,0.00,NW,321,0.0,15.7,53,0.00,,---,0.00,VWS V13.01,2013-05-26 12:02:00,
2013-05-26 08:07:00,50.2,32.8,0.00,NW,321,4.7,13.7,51,0.00,,---,0.00,VWS V13.01,2013-05-26 12:07:00,
2013-05-26 08:12:00,50.5,33.1,0.00,NNW,346,7.4,11.3,51,0.00,,---,0.00,VWS V13.01,2013-05-26 12:12:00,
2013-05-26 08:17:00,50.9,33.4,0.00,North,353,4.7,5.6,51,0.00,,---,0.00,VWS V13.01,2013-05-26 12:17:00,
2013-05-26 08:22:00,50.9,32.9,0.00,West,275,4.7,11.3,50,0.00,,---,0.00,VWS V13.01,2013-05-26 12:22:00,
2013-05-26 08:27:00,51.1,32.6,0.00,NW,304,5.4,9.7,49,0.00,,---,0.00,VWS V13.01,2013-05-26 12:27:00,
2013-05-26 08:32:00,51.4,32.9,0.00,West,268,5.4,12.9,49,0.00,,---,0.00,VWS V13.01,2013-05-26 12:32:00,
2013-05-26 08:37:00,52.0,32.9,0.00,North,357,0.0,14.5,48,0.00,,---,0.00,VWS V13.01,2013-05-26 12:37:00,
2013-05-26 08:42:00,52.0,32.9,0.00,North,0,8.1,15.7,48,0.00,,---,0.00,VWS V13.01,2013-05-26 12:42:00,
2013-05-26 08:47:00,51.8,32.2,0.00,North,357,15.8,18.9,47,0.00,,---,0.00,VWS V13.01,2013-05-26 12:47:00,
2013-05-26 08:52:00,51.8,32.2,0.00,NW,318,3.4,19.7,47,0.00,,---,0.00,VWS V13.01,2013-05-26 12:52:00,
2013-05-26 08:57:00,52.0,32.4,0.00,WNW,294,5.4,14.9,47,0.00,,---,0.00,VWS V13.01,2013-05-26 12:57:00,
2013-05-26 09:02:00,52.2,32.0,0.00,NW,320,4.7,8.1,46,0.00,,---,0.00,VWS V13.01,2013-05-26 13:02:00,
2013-05-26 09:07:00,52.3,32.2,0.00,NNW,327,0.0,18.9,46,0.00,,---,0.00,VWS V13.01,2013-05-26 13:07:00,
2013-05-26 09:12:00,52.7,32.5,0.00,SW,226,10.1,14.5,46,0.00,,---,0.00,VWS V13.01,2013-05-26 13:12:00,
2013-05-26 09:17:00,52.9,32.7,0.00,North,0,6.0,15.7,46,0.00,,---,0.00,VWS V13.01,2013-05-26 13:17:00,
2013-05-26 09:22:00,53.1,32.3,0.00,NNW,337,3.4,14.5,45,0.00,,---,0.00,VWS V13.01,2013-05-26 13:22:00,
2013-05-26 09:27:00,53.6,32.8,0.00,NW,314,5.4,15.7,45,0.00,,---,0.00,VWS V13.01,2013-05-26 13:27:00,
2013-05-26 09:32:00,54.0,33.1,0.00,NW,318,8.1,13.7,45,0.00,,---,0.00,VWS V13.01,2013-05-26 13:32:00,
2013-05-26 09:37:00,54.3,33.5,0.00,WNW,287,0.0,13.7,45,0.00,,---,0.00,VWS V13.01,2013-05-26 13:37:00,
2013-05-26 09:42:00,54.5,33.0,0.00,NNW,342,9.4,14.5,44,0.00,,---,0.00,VWS V13.01,2013-05-26 13:42:00,
2013-05-26 09:47:00,54.5,32.5,0.00,WNW,300,8.7,14.5,43,0.00,,---,0.00,VWS V13.01,2013-05-26 13:47:00,
2013-05-26 09:52:00,54.9,32.8,0.00,NNW,338,9.4,19.7,43,0.00,,---,0.00,VWS V13.01,2013-05-26 13:52:00,
2013-05-26 09:57:00,54.7,32.1,0.00,North,353,6.0,18.1,42,0.00,,---,0.00,VWS V13.01,2013-05-26 13:57:00,
2013-05-26 10:02:00,54.3,32.3,0.00,NNW,343,7.4,14.5,43,0.00,,---,0.00,VWS V13.01,2013-05-26 14:02:00,
2013-05-26 10:07:00,54.1,32.2,0.00,NW,305,6.0,15.7,43,0.00,,---,0.00,VWS V13.01,2013-05-26 14:07:00,
2013-05-26 10:12:00,54.9,32.8,0.00,NNW,342,5.4,7.2,43,0.00,,---,0.00,VWS V13.01,2013-05-26 14:12:00,
2013-05-26 10:17:00,54.7,32.1,0.00,ENE,60,8.1,17.3,42,0.00,,---,0.00,VWS V13.01,2013-05-26 14:17:00,
2013-05-26 10:22:00,54.3,31.7,0.00,NNE,28,4.7,14.9,42,0.00,,---,0.00,VWS V13.01,2013-05-26 14:22:00,
2013-05-26 10:27:00,54.3,31.7,0.00,ENE,78,6.0,11.3,42,0.00,,---,0.00,VWS V13.01,2013-05-26 14:27:00,
2013-05-26 10:32:00,54.5,31.9,0.00,North,7,7.4,10.5,42,0.00,,---,0.00,VWS V13.01,2013-05-26 14:32:00,
2013-05-26 10:37:00,55.0,33.0,0.00,NW,312,9.4,12.1,43,0.00,,---,0.00,VWS V13.01,2013-05-26 14:37:00,
2013-05-26 10:42:00,55.6,32.9,0.00,North,357,7.4,12.9,42,0.00,,---,0.00,VWS V13.01,2013-05-26 14:42:00,
2013-05-26 10:47:00,55.9,32.6,0.00,South,191,8.1,12.9,41,0.00,,---,0.00,VWS V13.01,2013-05-26 14:47:00,
2013-05-26 10:56:00,55.9,32.0,0.00,NW,318,8.7,10.5,40,0.00,,---,0.00,VWS V13.01,2013-05-26 14:56:00,
2013-05-26 11:01:00,55.9,32.0,0.00,NE,35,15.1,18.1,40,0.00,,---,0.00,VWS V13.01,2013-05-26 15:01:00,
2013-05-26 11:06:00,55.6,31.7,0.00,WNW,299,5.4,11.3,40,0.00,,---,0.00,VWS V13.01,2013-05-26 15:06:00,
2013-05-26 11:11:00,56.3,32.3,0.00,SW,221,12.4,14.9,40,0.00,,---,0.00,VWS V13.01,2013-05-26 15:11:00,
2013-05-26 11:16:00,56.5,32.5,0.00,NNE,29,8.7,13.7,40,0.00,,---,0.00,VWS V13.01,2013-05-26 15:16:00,
2013-05-26 11:21:00,56.7,32.6,0.00,NW,319,8.1,9.7,40,0.00,,---,0.00,VWS V13.01,2013-05-26 15:21:00,
2013-05-26 11:26:00,56.5,31.8,0.00,NW,309,6.7,14.9,39,0.00,,---,0.00,VWS V13.01,2013-05-26 15:26:00,
2013-05-26 11:31:00,56.5,31.8,0.00,NNW,348,9.4,11.3,39,0.00,,---,0.00,VWS V13.01,2013-05-26 15:31:00,
2013-05-26 11:36:00,57.2,32.5,0.00,NW,321,9.4,11.3,39,0.00,,---,0.00,VWS V13.01,2013-05-26 15:36:00,
2013-05-26 11:41:00,57.6,32.2,0.00,North,4,12.4,14.9,38,0.00,,---,0.00,VWS V13.01,2013-05-26 15:41:00,
2013-05-26 11:46:00,57.2,31.8,0.00,NNW,336,4.7,13.7,38,0.00,,---,0.00,VWS V13.01,2013-05-26 15:46:00,
2013-05-26 11:51:00,58.8,33.9,0.00,SSW,205,7.4,9.7,39,0.00,,---,0.00,VWS V13.01,2013-05-26 15:51:00,
2013-05-26 11:56:00,59.4,33.8,0.00,NW,322,4.7,12.9,38,0.00,,---,0.00,VWS V13.01,2013-05-26 15:56:00,
2013-05-26 12:01:00,59.0,32.8,0.00,North,0,9.4,12.9,37,0.00,,---,0.00,VWS V13.01,2013-05-26 16:01:00,
2013-05-26 12:06:00,59.2,33.0,0.00,North,357,11.4,20.5,37,0.00,,---,0.00,VWS V13.01,2013-05-26 16:06:00,
2013-05-26 12:11:00,59.9,33.6,0.00,NNW,343,7.4,11.3,37,0.00,,---,0.00,VWS V13.01,2013-05-26 16:11:00,
2013-05-26 12:16:00,59.7,33.4,0.00,NNE,24,8.7,15.7,37,0.00,,---,0.00,VWS V13.01,2013-05-26 16:16:00,
2013-05-26 12:21:00,60.3,33.9,0.00,WSW,257,8.1,9.7,37,0.00,,---,0.00,VWS V13.01,2013-05-26 16:21:00,
2013-05-26 12:26:00,59.9,32.9,0.00,West,266,12.4,14.9,36,0.00,,---,0.00,VWS V13.01,2013-05-26 16:26:00,
2013-05-26 12:31:00,59.5,32.6,0.00,NW,320,9.4,11.3,36,0.00,,---,0.00,VWS V13.01,2013-05-26 16:31:00,
2013-05-26 12:36:00,60.4,34.1,0.00,West,272,6.0,11.3,37,0.00,,---,0.00,VWS V13.01,2013-05-26 16:36:00,
2013-05-26 12:41:00,60.6,33.5,0.00,SW,214,6.0,7.2,36,0.00,,---,0.00,VWS V13.01,2013-05-26 16:41:00,
2013-05-26 12:46:00,60.8,33.7,0.00,NW,315,9.4,11.3,36,0.00,,---,0.00,VWS V13.01,2013-05-26 16:46:00,
2013-05-26 12:51:00,61.2,33.3,0.00,NW,317,13.1,15.7,35,0.00,,---,0.00,VWS V13.01,2013-05-26 16:51:00,
2013-05-26 12:56:00,61.9,34.0,0.00,North,353,15.8,19.7,35,0.00,,---,0.00,VWS V13.01,2013-05-26 16:56:00,
2013-05-26 13:01:00,61.5,33.6,0.00,WNW,292,14.4,17.3,35,0.00,,---,0.00,VWS V13.01,2013-05-26 17:01:00,
2013-05-26 13:06:00,61.0,33.2,0.00,NW,306,6.0,18.1,35,0.00,,---,0.00,VWS V13.01,2013-05-26 17:06:00,
2013-05-26 13:11:00,61.3,33.5,0.00,NNW,341,9.4,15.7,35,0.00,,---,0.00,VWS V13.01,2013-05-26 17:11:00,
2013-05-26 13:16:00,61.9,34.0,0.00,NNW,346,3.4,18.1,35,0.00,,---,0.00,VWS V13.01,2013-05-26 17:16:00,
2013-05-26 13:21:00,62.6,34.6,0.00,NW,324,0.0,18.1,35,0.00,,---,0.00,VWS V13.01,2013-05-26 17:21:00,
2013-05-26 13:26:00,62.8,34.8,0.00,West,271,8.7,14.9,35,0.00,,---,0.00,VWS V13.01,2013-05-26 17:26:00,
2013-05-26 13:31:00,61.9,34.0,0.00,SW,226,15.1,18.1,35,0.00,,---,0.00,VWS V13.01,2013-05-26 17:31:00,
2013-05-26 13:36:00,62.8,34.0,0.00,North,0,8.1,14.9,34,0.00,,---,0.00,VWS V13.01,2013-05-26 17:36:00,
2013-05-26 13:41:00,62.2,33.5,0.00,NW,314,15.1,18.1,34,0.00,,---,0.00,VWS V13.01,2013-05-26 17:41:00,
2013-05-26 13:46:00,61.3,32.8,0.00,North,0,6.0,15.7,34,0.00,,---,0.00,VWS V13.01,2013-05-26 17:46:00,
2013-05-26 13:51:00,62.1,33.4,0.00,East,79,4.0,9.7,34,0.00,,---,0.00,VWS V13.01,2013-05-26 17:51:00,
2013-05-26 13:56:00,62.2,33.5,0.00,SSW,203,7.4,18.1,34,0.00,,---,0.00,VWS V13.01,2013-05-26 17:56:00,
2013-05-26 14:00:00,62.1,33.4,0.00,WNW,303,8.7,14.5,34,0.00,,---,0.00,VWS V13.01,2013-05-26 18:00:00,
2013-05-26 14:05:00,63.3,34.5,0.00,NNW,334,9.4,11.3,34,0.00,,---,0.00,VWS V13.01,2013-05-26 18:05:00,
2013-05-26 14:10:00,63.1,34.3,0.00,WSW,254,4.0,13.7,34,0.00,,---,0.00,VWS V13.01,2013-05-26 18:10:00,
2013-05-26 14:15:00,62.8,34.0,0.00,West,268,11.4,18.9,34,0.00,,---,0.00,VWS V13.01,2013-05-26 18:15:00,
2013-05-26 14:20:00,63.0,34.2,0.00,North,357,9.4,12.9,34,0.00,,---,0.00,VWS V13.01,2013-05-26 18:20:00,
2013-05-26 14:25:00,62.6,33.9,0.00,South,190,9.4,11.3,34,0.00,,---,0.00,VWS V13.01,2013-05-26 18:25:00,
2013-05-26 14:30:00,62.4,33.7,0.00,WNW,287,11.4,23.0,34,0.00,,---,0.00,VWS V13.01,2013-05-26 18:30:00,
2013-05-26 14:35:00,62.6,33.9,0.00,WSW,248,6.0,14.5,34,0.00,,---,0.00,VWS V13.01,2013-05-26 18:35:00,
2013-05-26 14:40:00,63.9,35.0,0.00,WNW,292,12.4,31.4,34,0.00,,---,0.00,VWS V13.01,2013-05-26 18:40:00,
2013-05-26 14:45:00,62.2,33.5,0.00,SW,226,19.8,23.8,34,0.00,,---,0.00,VWS V13.01,2013-05-26 18:45:00,
2013-05-26 14:50:00,63.5,34.7,0.00,NW,321,13.8,16.5,34,0.00,,---,0.00,VWS V13.01,2013-05-26 18:50:00,
2013-05-26 14:55:00,64.2,35.3,0.00,WNW,294,9.4,11.3,34,0.00,,---,0.00,VWS V13.01,2013-05-26 18:55:00,
2013-05-26 15:00:00,63.1,34.3,0.00,ENE,75,5.4,6.4,34,0.00,,---,0.00,VWS V13.01,2013-05-26 19:00:00,
2013-05-26 15:05:00,62.6,33.1,0.00,NW,322,12.4,14.9,33,0.00,,---,0.00,VWS V13.01,2013-05-26 19:05:00,
2013-05-26 15:10:00,62.8,33.3,0.00,West,261,15.8,18.9,33,0.00,,---,0.00,VWS V13.01,2013-05-26 19:10:00,
2013-05-26 15:15:00,62.2,33.5,0.00,WSW,245,13.1,18.1,34,0.00,,---,0.00,VWS V13.01,2013-05-26 19:15:00,
2013-05-26 15:20:00,62.6,33.1,0.00,North,0,6.0,10.5,33,0.00,,---,0.00,VWS V13.01,2013-05-26 19:20:00,
2013-05-26 15:25:00,62.8,33.3,0.00,South,182,8.1,14.5,33,0.00,,---,0.00,VWS V13.01,2013-05-26 19:25:00,
2013-05-26 15:30:00,62.6,33.1,0.00,WSW,256,7.4,11.3,33,0.00,,---,0.00,VWS V13.01,2013-05-26 19:30:00,
2013-05-26 15:35:00,62.4,33.7,0.00,WSW,242,23.2,27.8,34,0.00,,---,0.00,VWS V13.01,2013-05-26 19:35:00,
2013-05-26 15:40:00,62.6,33.1,0.00,West,269,15.1,18.1,33,0.00,,---,0.00,VWS V13.01,2013-05-26 19:40:00,
2013-05-26 15:45:00,62.2,32.8,0.00,North,357,8.7,14.5,33,0.00,,---,0.00,VWS V13.01,2013-05-26 19:45:00,
2013-05-26 15:50:00,62.4,33.7,0.00,NW,306,9.4,14.5,34,0.00,,---,0.00,VWS V13.01,2013-05-26 19:50:00,
2013-05-26 15:55:00,61.9,32.5,0.00,WSW,241,9.4,18.1,33,0.00,,---,0.00,VWS V13.01,2013-05-26 19:55:00,
2013-05-26 16:00:00,62.2,32.8,0.00,SW,229,6.0,18.9,33,0.00,,---,0.00,VWS V13.01,2013-05-26 20:00:00,
2013-05-26 16:05:00,62.1,32.6,0.00,NW,316,7.4,9.7,33,0.00,,---,0.00,VWS V13.01,2013-05-26 20:05:00,
2013-05-26 16:10:00,61.9,31.7,0.00,North,9,12.1,18.1,32,0.00,,---,0.00,VWS V13.01,2013-05-26 20:10:00,
2013-05-26 16:15:00,62.1,32.6,0.00,NW,318,8.7,19.7,33,0.00,,---,0.00,VWS V13.01,2013-05-26 20:15:00,
2013-05-26 16:20:00,61.7,31.6,0.00,WNW,300,9.4,17.3,32,0.00,,---,0.00,VWS V13.01,2013-05-26 20:20:00,
2013-05-26 16:25:00,61.9,31.7,0.00,WNW,296,9.4,11.3,32,0.00,,---,0.00,VWS V13.01,2013-05-26 20:25:00,
2013-05-26 16:30:00,61.7,31.6,0.00,WNW,288,11.4,15.7,32,0.00,,---,0.00,VWS V13.01,2013-05-26 20:30:00,
2013-05-26 16:35:00,61.2,30.3,0.00,North,353,9.4,11.3,31,0.00,,---,0.00,VWS V13.01,2013-05-26 20:35:00,
2013-05-26 16:40:00,61.3,31.2,0.00,WNW,288,12.1,23.8,32,0.00,,---,0.00,VWS V13.01,2013-05-26 20:40:00,
2013-05-26 16:45:00,62.1,32.6,0.00,WNW,297,4.0,4.8,33,0.00,,---,0.00,VWS V13.01,2013-05-26 20:45:00,
2013-05-26 16:50:00,62.1,32.6,0.00,NNW,331,6.0,10.5,33,0.00,,---,0.00,VWS V13.01,2013-05-26 20:50:00,
2013-05-26 16:55:00,61.5,31.4,0.00,WSW,237,6.0,10.5,32,0.00,,---,0.00,VWS V13.01,2013-05-26 20:55:00,
2013-05-26 23:02:00,47.1,30.9,0.00,West,280,0.0,0.0,53,0.00,,---,0.00,VWS V13.01,2013-05-27 03:02:00,
2013-05-26 23:07:00,47.1,31.4,0.00,West,280,0.0,0.0,54,0.00,,---,0.00,VWS V13.01,2013-05-27 03:07:00,
2013-05-26 23:12:00,47.1,31.4,0.00,West,269,0.0,0.0,54,0.00,,---,0.00,VWS V13.01,2013-05-27 03:12:00,
2013-05-26 23:17:00,47.3,31.5,0.00,West,269,0.0,0.0,54,0.00,,---,0.00,VWS V13.01,2013-05-27 03:17:00,
2013-05-26 23:22:00,47.5,31.7,0.00,WSW,247,0.0,7.2,54,0.00,,---,0.00,VWS V13.01,2013-05-27 03:22:00,
2013-05-26 23:27:00,47.7,31.9,0.00,West,274,5.4,6.4,54,0.00,,---,0.00,VWS V13.01,2013-05-27 03:27:00,
2013-05-26 23:32:00,48.0,31.7,0.00,WSW,249,0.0,9.7,53,0.00,,---,0.00,VWS V13.01,2013-05-27 03:32:00,
2013-05-26 23:37:00,48.2,31.4,0.00,West,264,0.0,4.8,52,0.00,,---,0.00,VWS V13.01,2013-05-27 03:37:00,
2013-05-26 23:42:00,48.4,31.6,0.00,West,263,0.0,0.0,52,0.00,,---,0.00,VWS V13.01,2013-05-27 03:42:00,
2013-05-26 23:47:00,48.4,31.1,0.00,WSW,252,0.0,5.6,51,0.00,,---,0.00,VWS V13.01,2013-05-27 03:47:00,
2013-05-26 23:52:00,48.2,30.9,0.00,WSW,239,0.0,0.0,51,0.00,,---,0.00,VWS V13.01,2013-05-27 03:52:00,
2013-05-26 23:57:00,48.4,31.1,0.00,West,271,3.4,8.9,51,0.00,,---,0.00,VWS V13.01,2013-05-27 03:57:00,